This is the latest recevied weather packets stored in our database for station/object WO5CID. If no packets are shown the sender has not sent any weather packets the latest 10 day(s).
| Time | Temp. | Humidity | Pressure | Rain* | Wind** | Luminosity | Snow |
|---|---|---|---|---|---|---|---|
| 1777911310 | 27.22° C | 30% | 1018 hPa | 0 mm | - | 908 W/m² | - |
| 1777911009 | 27.22° C | 31% | 1018 hPa | 0 mm | - | 902 W/m² | - |
| 1777910706 | 27.22° C | 30% | 1018 hPa | 0 mm | - | 897 W/m² | - |
| 1777910403 | 27.22° C | 32% | 1018.2 hPa | 0 mm | - | 892 W/m² | - |
| 1777910099 | 27.22° C | 34% | 1018 hPa | 0 mm | - | 875 W/m² | - |
| 1777909797 | 27.22° C | 36% | 1018.2 hPa | 0 mm | - | 866 W/m² | - |
| 1777909493 | 26.67° C | 32% | 1018.1 hPa | 0 mm | - | 858 W/m² | - |
| 1777909191 | 25.56° C | 38% | 1018.1 hPa | 0 mm | - | 851 W/m² | - |
| 1777908889 | 26.67° C | 34% | 1018.1 hPa | 0 mm | - | 845 W/m² | - |
| 1777908586 | 26.67° C | 33% | 1017.9 hPa | 0 mm | - | 837 W/m² | - |
| 1777908282 | 26.67° C | 39% | 1018.1 hPa | 0 mm | - | 823 W/m² | - |
| 1777907978 | 25.56° C | 37% | 1018.1 hPa | 0 mm | - | 807 W/m² | - |
| 1777907675 | 25.56° C | 38% | 1018.1 hPa | 0 mm | - | 799 W/m² | - |
| 1777907370 | 26.11° C | 39% | 1018.2 hPa | 0 mm | - | 783 W/m² | - |
| 1777907067 | 26.67° C | 35% | 1018.2 hPa | 0 mm | - | 774 W/m² | - |
| 1777906764 | 26.11° C | 37% | 1018.2 hPa | 0 mm | - | 760 W/m² | - |
| 1777906461 | 25.56° C | 36% | 1018.3 hPa | 0 mm | - | 745 W/m² | - |
| 1777906158 | 25.56° C | 37% | 1018.3 hPa | 0 mm | - | 731 W/m² | - |
| 1777905854 | 26.11° C | 37% | 1018.2 hPa | 0 mm | - | 717 W/m² | - |
| 1777905551 | 26.67° C | 38% | 1018.4 hPa | 0 mm | - | 696 W/m² | - |
| 1777905248 | 25.56° C | 39% | 1018.2 hPa | 0 mm | - | 684 W/m² | - |
| 1777904945 | 26.11° C | 38% | 1018.2 hPa | 0 mm | - | 675 W/m² | - |
| 1777904643 | 26.11° C | 39% | 1018.3 hPa | 0 mm | - | 653 W/m² | - |
| 1777904340 | 26.11° C | 44% | 1018.3 hPa | 0 mm | - | 635 W/m² | - |
| 1777904036 | 25.56° C | 47% | 1018 hPa | 0 mm | - | 624 W/m² | - |
* Rain latest hour (hover to see other rain measurements)
** Current wind speed in m/s (hover to see current wind gust speed)